User: anonymous   Login
Location: *
(51.5000°N, 0.1100°W)
Time: 21:39:30
(UTC+00:00)
Language:

Cosmos 1954 Rocket - Orbit

View from above orbital plane
View from above orbital plane
View from above satellite
View from above satellite

Ground track
Ground track

The orbit data is extracted from the following two-line orbital elements,

1 19257U 88053B   24205.54919873  .00000770  00000-0  26152-3 0  9990
2 19257  74.0481 127.1183 0019070  96.2886  76.1495 14.38234243891430
Epoch (UTC): 23 July 2024 13:10:50
Eccentricity: 0.0019070
inclination: 74.0481°
perigee height: 751 km
apogee height: 778 km
right ascension of ascending node: 127.1183°
argument of perigee: 96.2886°
revolutions per day: 14.38234243
mean anomaly at epoch: 76.1495°
orbit number at epoch: 89143

The dashed part of the orbit path shows where the satellite is in the earth's shadow,  

DLR